Location: Arlington
(40.6323°N, 74.1651°W)
Time: 08:12:00
(UTC+00:00)

NOAA 11 - Pass Details

Date: 22 November 2019
Orbit: 834 x 849 km, 98.4° (Epoch: 05 December)

Event Time Altitude Azimuth Distance (km) Brightness Sun altitude
Rises 23:06:58 0° 145° (SE) 3,368 7.1 -17.5°
Reaches altitude 10° 23:09:25 10° 139° (SE) 2,438 6.3 -17.9°
Maximum altitude 23:14:27 42° 70° (ENE) 1,181 4.5 -18.8°
Drops below altitude 10° 23:19:32 10° 1° (N) 2,459 6.5 -19.8°
Sets 23:22:01 0° 355° (N) 3,399 7.3 -20.3°
